^^
Station Historical Data
Daily Summary for May 16, 2018 Units:  Metric    English   Both
« Previous Day
Next Day »
Daily Weekly Monthly Yearly Custom
  High: Low: Average:
Temperature: -17.8 °C 1.9 °C 12.9 °C
Dew Point: -17.8 °C -5.1 °C 2.2 °C
Humidity: Humidity % 33 % 49 %
Wind Speed: 0 km/h 0 km/h 0.8 km/h
Wind Gust: 0 km/h - -
Wind:- - SW
Pressure: 0 hPa 1010.4 hPa -
Precipitation: 0 mm    
Historical Graphs
 
 
Tabular Data for May 16, 2018
Time Temperature Dew Point Pressure Wind Wind Speed Wind Gust Humidity Rainfall Rate (Hourly) solar Conditions
-17.8 °C -17.8 °C 0 hPa Calm     Humidity % 0 mm SoftwareType W/m2 Conditions
00:04 7.2 °C -0.1 °C 1016.8 hPa Calm     60 % 0 mm WeatherDisplay:10.37 W/m2 RA
00:09 7 °C 0 °C 1016.8 hPa Calm     61 % 0 mm WeatherDisplay:10.37 W/m2 SKC
00:14 6.9 °C 0.2 °C 1016.8 hPa Calm     62 % 0 mm WeatherDisplay:10.37 W/m2 SKC
00:19 6.8 °C 0.1 °C 1017.2 hPa Calm     62 % 0 mm WeatherDisplay:10.37 W/m2 SKC
00:24 6.7 °C 0.2 °C 1017.2 hPa Calm     63 % 0 mm WeatherDisplay:10.37 W/m2 SKC
00:29 6.6 °C 0.1 °C 1017.2 hPa Calm     63 % 0 mm WeatherDisplay:10.37 W/m2 SKC
00:34 6.5 °C 0.2 °C 1017.2 hPa Calm     64 % 0 mm WeatherDisplay:10.37 W/m2 SKC
00:39 6.4 °C 0.1 °C 1017.5 hPa Calm     64 % 0 mm WeatherDisplay:10.37 W/m2 SKC
00:44 6.3 °C 0.2 °C 1017.5 hPa Calm     65 % 0 mm WeatherDisplay:10.37 W/m2 SKC
00:49 6.2 °C 0.1 °C 1017.5 hPa Calm     65 % 0 mm WeatherDisplay:10.37 W/m2 SKC
00:54 6.1 °C 0 °C 1017.5 hPa Calm     65 % 0 mm WeatherDisplay:10.37 W/m2 SKC
00:59 6 °C 0.1 °C 1017.5 hPa Calm     66 % 0 mm WeatherDisplay:10.37 W/m2 SKC
01:04 5.9 °C 0.1 °C 1017.8 hPa Calm     66 % 0 mm WeatherDisplay:10.37 W/m2 SKC
01:09 5.8 °C -0.1 °C 1017.8 hPa Calm     66 % 0 mm WeatherDisplay:10.37 W/m2 SKC
01:14 5.7 °C 0.1 °C 1017.8 hPa Calm     67 % 0 mm WeatherDisplay:10.37 W/m2 SKC
01:19 5.7 °C 0 °C 1017.8 hPa Calm     67 % 0 mm WeatherDisplay:10.37 W/m2 SKC
01:24 5.6 °C -0.1 °C 1017.8 hPa Calm     67 % 0 mm WeatherDisplay:10.37 W/m2 SKC
01:29 5.4 °C 0 °C 1017.8 hPa Calm     68 % 0 mm WeatherDisplay:10.37 W/m2 SKC
01:34 5.4 °C 0.2 °C 1017.8 hPa Calm     69 % 0 mm WeatherDisplay:10.37 W/m2 SKC
01:39 5.3 °C 0.1 °C 1018.2 hPa Calm     69 % 0 mm WeatherDisplay:10.37 W/m2 SKC
01:44 5.2 °C 0.1 °C 1018.2 hPa Calm     70 % 0 mm WeatherDisplay:10.37 W/m2 SKC
01:49 5.1 °C 0.1 °C 1018.2 hPa Calm     70 % 0 mm WeatherDisplay:10.37 W/m2 SKC
01:54 5.1 °C 0 °C 1018.2 hPa Calm     70 % 0 mm WeatherDisplay:10.37 W/m2 SKC
01:59 5 °C 0 °C 1018.5 hPa Calm     70 % 0 mm WeatherDisplay:10.37 W/m2 SKC
02:04 4.9 °C 0.1 °C 1018.5 hPa Calm     71 % 0 mm WeatherDisplay:10.37 W/m2 SKC
02:09 4.8 °C 0 °C 1018.5 hPa Calm     71 % 0 mm WeatherDisplay:10.37 W/m2 SKC
02:14 4.8 °C -0.2 °C 1018.5 hPa Calm     70 % 0 mm WeatherDisplay:10.37 W/m2 SKC
02:19 4.7 °C -0.3 °C 1018.5 hPa Calm     70 % 0 mm WeatherDisplay:10.37 W/m2 SKC
02:24 4.6 °C -0.4 °C 1018.5 hPa Calm     70 % 0 mm WeatherDisplay:10.37 W/m2 SKC
02:29 4.6 °C -0.4 °C 1018.5 hPa Calm     70 % 0 mm WeatherDisplay:10.37 W/m2 SKC
02:34 4.4 °C -0.8 °C 1018.5 hPa Calm     69 % 0 mm WeatherDisplay:10.37 W/m2 SKC
02:39 4.4 °C -0.8 °C 1018.5 hPa Calm     69 % 0 mm WeatherDisplay:10.37 W/m2 SKC
02:44 4.3 °C -0.9 °C 1018.5 hPa Calm     69 % 0 mm WeatherDisplay:10.37 W/m2 SKC
02:49 4.2 °C -0.9 °C 1018.5 hPa Calm     69 % 0 mm WeatherDisplay:10.37 W/m2 SKC
02:54 4.2 °C -1.2 °C 1018.8 hPa Calm     68 % 0 mm WeatherDisplay:10.37 W/m2 SKC
02:59 4.1 °C -1.3 °C 1018.8 hPa Calm     68 % 0 mm WeatherDisplay:10.37 W/m2 SKC
03:04 4.1 °C -1.3 °C 1019.2 hPa Calm     68 % 0 mm WeatherDisplay:10.37 W/m2 SKC
03:09 4 °C -1.4 °C 1018.8 hPa Calm     68 % 0 mm WeatherDisplay:10.37 W/m2 SKC
03:14 4 °C -1.4 °C 1019.2 hPa Calm     68 % 0 mm WeatherDisplay:10.37 W/m2 SKC
03:19 3.9 °C -1.4 °C 1019.2 hPa Calm     68 % 0 mm WeatherDisplay:10.37 W/m2 SKC
03:24 3.9 °C -1.4 °C 1019.2 hPa Calm     68 % 0 mm WeatherDisplay:10.37 W/m2 SKC
03:29 3.9 °C -1.5 °C 1019.2 hPa Calm   1.6 km/h 68 % 0 mm WeatherDisplay:10.37 W/m2 SKC
03:34 3.8 °C -1.5 °C 1019.2 hPa Calm   3.2 km/h 68 % 0 mm WeatherDisplay:10.37 W/m2 SKC
03:39 3.8 °C -2 °C 1019.5 hPa Calm   3.2 km/h 66 % 0 mm WeatherDisplay:10.37 W/m2 SKC
03:44 3.8 °C -2.2 °C 1019.5 hPa Calm   3.2 km/h 65 % 0 mm WeatherDisplay:10.37 W/m2 SKC
03:49 3.8 °C -2.6 °C 1019.5 hPa Calm   3.2 km/h 63 % 0 mm WeatherDisplay:10.37 W/m2 SKC
03:54 3.8 °C -2.8 °C 1019.5 hPa Calm   3.2 km/h 62 % 0 mm WeatherDisplay:10.37 W/m2 SKC
03:59 3.8 °C -2.6 °C 1019.5 hPa Calm   3.2 km/h 63 % 0 mm WeatherDisplay:10.37 W/m2 SKC
04:09 3.8 °C -2.6 °C 1019.5 hPa Calm   1.6 km/h 63 % 0 mm WeatherDisplay:10.37 W/m2 SKC
04:14 3.7 °C -2.7 °C 1019.5 hPa Calm     63 % 0 mm WeatherDisplay:10.37 W/m2 SKC
04:19 3.7 °C -2.7 °C 1019.9 hPa Calm     63 % 0 mm WeatherDisplay:10.37 W/m2 SKC
04:24 3.6 °C -2.8 °C 1019.5 hPa Calm     63 % 0 mm WeatherDisplay:10.37 W/m2 SKC
04:29 3.5 °C -3.1 °C 1019.5 hPa Calm     62 % 0 mm WeatherDisplay:10.37 W/m2 SKC
04:34 3.4 °C -2.9 °C 1019.9 hPa Calm     63 % 0 mm WeatherDisplay:10.37 W/m2 SKC
04:39 3.3 °C -3.2 °C 1019.9 hPa Calm     62 % 0 mm WeatherDisplay:10.37 W/m2 SKC
04:44 3.3 °C -3.3 °C 1019.5 hPa Calm     62 % 0 mm WeatherDisplay:10.37 W/m2 SKC
04:49 3.2 °C -3.4 °C 1019.5 hPa Calm     62 % 0 mm WeatherDisplay:10.37 W/m2 SKC
04:54 3.1 °C -3.5 °C 1019.9 hPa Calm     62 % 0 mm WeatherDisplay:10.37 W/m2 SKC
04:59 3 °C -3.4 °C 1019.9 hPa Calm     63 % 0 mm WeatherDisplay:10.37 W/m2 SKC
05:04 2.9 °C -3.4 °C 1019.9 hPa Calm     63 % 0 mm WeatherDisplay:10.37 W/m2 SKC
05:09 2.8 °C -3.6 °C 1019.9 hPa Calm     63 % 0 mm WeatherDisplay:10.37 W/m2 SKC
05:14 2.7 °C -3.7 °C 1019.9 hPa Calm     63 % 0 mm WeatherDisplay:10.37 W/m2 FEW
05:19 2.6 °C -3.7 °C 1020.2 hPa Calm     63 % 0 mm WeatherDisplay:10.37 W/m2 FEW
05:24 2.5 °C -3.8 °C 1020.2 hPa Calm     63 % 0 mm WeatherDisplay:10.37 W/m2 FEW
05:29 2.4 °C -3.9 °C 1020.2 hPa Calm     63 % 0 mm WeatherDisplay:10.37 W/m2 FEW
05:34 2.3 °C -4 °C 1020.2 hPa Calm     63 % 0 mm WeatherDisplay:10.37 W/m2 FEW
05:44 2.2 °C -4.1 °C 1020.5 hPa Calm     63 % 0 mm WeatherDisplay:10.37 W/m2 FEW
05:49 2.1 °C -4.2 °C 1020.5 hPa Calm     63 % 0 mm WeatherDisplay:10.37 W/m2 FEW
05:59 2 °C -4.1 °C 1020.5 hPa Calm     64 % 0 mm WeatherDisplay:10.37 W/m2 FEW
06:04 1.9 °C -4.2 °C 1020.5 hPa Calm     64 % 0 mm WeatherDisplay:10.37 W/m2 FEW
06:09 1.9 °C -4.2 °C 1020.5 hPa Calm     64 % 0 mm WeatherDisplay:10.37 W/m2 FEW
06:29 2 °C -4.7 °C 1020.5 hPa ENE 1.6 km/h 11.3 km/h 61 % 0 mm WeatherDisplay:10.37 W/m2 FEW
06:39 2.3 °C -4.9 °C 1020.9 hPa Calm   6.4 km/h 59 % 0 mm WeatherDisplay:10.37 W/m2 FEW
06:44 2.5 °C -4.9 °C 1020.9 hPa Calm   4.8 km/h 58 % 0 mm WeatherDisplay:10.37 W/m2 FEW
06:49 2.7 °C -5 °C 1020.9 hPa Calm   9.7 km/h 57 % 0 mm WeatherDisplay:10.37 W/m2 FEW
06:54 2.8 °C -5.1 °C 1021.2 hPa Calm   6.4 km/h 56 % 0 mm WeatherDisplay:10.37 W/m2 FEW
07:09 3.3 °C -4.9 °C 1020.9 hPa East 1.6 km/h 4.8 km/h 55 % 0 mm WeatherDisplay:10.37 W/m2 FEW
07:14 3.4 °C -5.1 °C 1020.9 hPa Calm   11.3 km/h 54 % 0 mm WeatherDisplay:10.37 W/m2 FEW
07:19 3.6 °C -4.7 °C 1020.9 hPa Calm   8 km/h 55 % 0 mm WeatherDisplay:10.37 W/m2 FEW
07:24 3.7 °C -4.1 °C 1020.9 hPa ENE 1.6 km/h 4.8 km/h 57 % 0 mm WeatherDisplay:10.37 W/m2 FEW
07:29 3.8 °C -4.7 °C 1020.5 hPa East 1.6 km/h 6.4 km/h 54 % 0 mm WeatherDisplay:10.37 W/m2 FEW
07:34 3.9 °C -4.8 °C 1020.5 hPa East 1.6 km/h 14.5 km/h 53 % 0 mm WeatherDisplay:10.37 W/m2 FEW
07:39 4.1 °C -4.4 °C 1020.9 hPa Calm   4.8 km/h 54 % 0 mm WeatherDisplay:10.37 W/m2 FEW
07:44 4.2 °C -4.3 °C 1020.9 hPa Calm   8 km/h 54 % 0 mm WeatherDisplay:10.37 W/m2 FEW
07:49 4.4 °C -4.1 °C 1020.9 hPa East 1.6 km/h 9.7 km/h 54 % 0 mm WeatherDisplay:10.37 W/m2 FEW
07:54 4.5 °C -3.8 °C 1020.9 hPa East 1.6 km/h 9.7 km/h 55 % 0 mm WeatherDisplay:10.37 W/m2 FEW
07:59 4.6 °C -3.9 °C 1020.9 hPa Calm   9.7 km/h 54 % 0 mm WeatherDisplay:10.37 W/m2 FEW
08:04 4.7 °C -3.8 °C 1020.9 hPa Calm   4.8 km/h 54 % 0 mm WeatherDisplay:10.37 W/m2 FEW
08:09 5 °C -2.8 °C 1020.9 hPa Calm   4.8 km/h 57 % 0 mm WeatherDisplay:10.37 W/m2 FEW
08:14 5.2 °C -3.3 °C 1020.9 hPa East 1.6 km/h 4.8 km/h 54 % 0 mm WeatherDisplay:10.37 W/m2 FEW
08:19 5.3 °C -3 °C 1020.9 hPa Calm   4.8 km/h 55 % 0 mm WeatherDisplay:10.37 W/m2 FEW
08:24 5.5 °C -3.1 °C 1020.9 hPa Calm   4.8 km/h 54 % 0 mm WeatherDisplay:10.37 W/m2 FEW
08:29 5.6 °C -3.5 °C 1020.5 hPa Calm   8 km/h 52 % 0 mm WeatherDisplay:10.37 W/m2 FEW
08:34 5.7 °C -3.4 °C 1020.5 hPa Calm   8 km/h 52 % 0 mm WeatherDisplay:10.37 W/m2 FEW
08:39 5.8 °C -3 °C 1020.5 hPa Calm   3.2 km/h 53 % 0 mm WeatherDisplay:10.37 W/m2 FEW
08:44 6.2 °C -2.7 °C 1020.2 hPa Calm   4.8 km/h 53 % 0 mm WeatherDisplay:10.37 W/m2 FEW
08:49 6.4 °C -2.5 °C 1020.5 hPa Calm   3.2 km/h 53 % 0 mm WeatherDisplay:10.37 W/m2 FEW
08:54 6.7 °C -3.1 °C 1020.2 hPa Calm   9.7 km/h 50 % 0 mm WeatherDisplay:10.37 W/m2 FEW
08:59 6.8 °C -2.9 °C 1020.2 hPa East 1.6 km/h 4.8 km/h 50 % 0 mm WeatherDisplay:10.37 W/m2 FEW
09:04 6.9 °C -2.6 °C 1020.2 hPa Calm   1.6 km/h 51 % 0 mm WeatherDisplay:10.37 W/m2 FEW
09:09 7.2 °C -2.3 °C 1020.2 hPa ESE 1.6 km/h 6.4 km/h 51 % 0 mm WeatherDisplay:10.37 W/m2 FEW
09:14 7.3 °C -2.9 °C 1020.2 hPa Calm   6.4 km/h 48 % 0 mm WeatherDisplay:10.37 W/m2 FEW
09:19 7.5 °C -2.8 °C 1020.2 hPa East 1.6 km/h 8 km/h 48 % 0 mm WeatherDisplay:10.37 W/m2 FEW
09:24 7.7 °C -2.9 °C 1020.2 hPa ESE 1.6 km/h 8 km/h 47 % 0 mm WeatherDisplay:10.37 W/m2 FEW
09:34 8.5 °C -1.9 °C 1019.9 hPa ESE 1.6 km/h 8 km/h 48 % 0 mm WeatherDisplay:10.37 W/m2 FEW
09:39 8.9 °C -1.2 °C 1019.9 hPa Calm   6.4 km/h 49 % 0 mm WeatherDisplay:10.37 W/m2 FEW
09:44 9.3 °C -1.4 °C 1019.9 hPa Calm   6.4 km/h 47 % 0 mm WeatherDisplay:10.37 W/m2 FEW
09:54 9.9 °C -1.8 °C 1019.9 hPa Calm   4.8 km/h 44 % 0 mm WeatherDisplay:10.37 W/m2 FEW
09:59 10.1 °C -1.6 °C 1019.9 hPa Calm   4.8 km/h 44 % 0 mm WeatherDisplay:10.37 W/m2 FEW
10:04 10.3 °C -1.2 °C 1019.5 hPa Calm   4.8 km/h 45 % 0 mm WeatherDisplay:10.37 W/m2 FEW
10:09 10.5 °C -1.6 °C 1019.9 hPa Calm   3.2 km/h 43 % 0 mm WeatherDisplay:10.37 W/m2 FEW
10:14 10.7 °C -1.4 °C 1019.5 hPa Calm   4.8 km/h 43 % 0 mm WeatherDisplay:10.37 W/m2 FEW
10:19 10.9 °C -1.8 °C 1019.2 hPa Calm   3.2 km/h 41 % 0 mm WeatherDisplay:10.37 W/m2 FEW
10:24 11.2 °C -1.6 °C 1019.5 hPa ESE 1.6 km/h 8 km/h 41 % 0 mm WeatherDisplay:10.37 W/m2 FEW
10:29 11.4 °C -1.4 °C 1019.5 hPa Calm   6.4 km/h 41 % 0 mm WeatherDisplay:10.37 W/m2 FEW
10:34 11.5 °C -1 °C 1019.2 hPa Calm   3.2 km/h 42 % 0 mm WeatherDisplay:10.37 W/m2 FEW
10:39 11.7 °C -1.1 °C 1019.2 hPa East 1.6 km/h 9.7 km/h 41 % 0 mm WeatherDisplay:10.37 W/m2 FEW
10:44 11.9 °C -0.3 °C 1019.2 hPa Calm   3.2 km/h 43 % 0 mm WeatherDisplay:10.37 W/m2 FEW
10:49 12.2 °C -1 °C 1019.2 hPa ESE 1.6 km/h 6.4 km/h 40 % 0 mm WeatherDisplay:10.37 W/m2 FEW
10:54 12.3 °C -1.3 °C 1019.2 hPa Calm   8 km/h 39 % 0 mm WeatherDisplay:10.37 W/m2 FEW
10:59 12.5 °C -0.1 °C 1019.2 hPa Calm   4.8 km/h 42 % 0 mm WeatherDisplay:10.37 W/m2 FEW
11:04 12.7 °C -0.9 °C 1019.2 hPa Calm   4.8 km/h 39 % 0 mm WeatherDisplay:10.37 W/m2 FEW
11:09 12.8 °C -0.5 °C 1019.2 hPa ENE 1.6 km/h 6.4 km/h 40 % 0 mm WeatherDisplay:10.37 W/m2 FEW
11:14 12.6 °C -1.3 °C 1019.2 hPa ENE 1.6 km/h 9.7 km/h 38 % 0 mm WeatherDisplay:10.37 W/m2 FEW
11:19 12.6 °C -0.7 °C 1019.2 hPa Calm   4.8 km/h 40 % 0 mm WeatherDisplay:10.37 W/m2 FEW
11:24 13.1 °C 0.4 °C 1018.8 hPa Calm   1.6 km/h 42 % 0 mm WeatherDisplay:10.37 W/m2 FEW
11:29 13.4 °C -0.7 °C 1018.8 hPa Calm   3.2 km/h 38 % 0 mm WeatherDisplay:10.37 W/m2 FEW
11:34 13.5 °C 0.1 °C 1018.8 hPa Calm   3.2 km/h 40 % 0 mm WeatherDisplay:10.37 W/m2 FEW
11:39 13.7 °C 0.3 °C 1018.8 hPa Calm   1.6 km/h 40 % 0 mm WeatherDisplay:10.37 W/m2 FEW
11:44 13.8 °C 0.4 °C 1018.5 hPa Calm   8 km/h 40 % 0 mm WeatherDisplay:10.37 W/m2 FEW
11:49 13.9 °C -0.2 °C 1018.5 hPa Calm   6.4 km/h 38 % 0 mm WeatherDisplay:10.37 W/m2 FEW
11:54 14.2 °C 0.8 °C 1018.5 hPa ESE 1.6 km/h 4.8 km/h 40 % 0 mm WeatherDisplay:10.37 W/m2 FEW
11:59 14.5 °C 0.7 °C 1018.5 hPa Calm   3.2 km/h 39 % 0 mm WeatherDisplay:10.37 W/m2 FEW
12:04 14.5 °C 0.3 °C 1018.5 hPa Calm   4.8 km/h 38 % 0 mm WeatherDisplay:10.37 W/m2 FEW
12:09 14.7 °C 0.4 °C 1018.2 hPa Calm   6.4 km/h 38 % 0 mm WeatherDisplay:10.37 W/m2 FEW
12:14 14.8 °C 0.6 °C 1018.2 hPa SSW 1.6 km/h 6.4 km/h 38 % 0 mm WeatherDisplay:10.37 W/m2 FEW
12:24 15 °C 1.2 °C 1018.2 hPa Calm   3.2 km/h 39 % 0 mm WeatherDisplay:10.37 W/m2 FEW
12:29 15.2 °C 0.6 °C 1018.2 hPa Calm   8 km/h 37 % 0 mm WeatherDisplay:10.37 W/m2 FEW
12:34 15.2 °C 0.6 °C 1017.8 hPa Calm   8 km/h 37 % 0 mm WeatherDisplay:10.37 W/m2 FEW
12:39 15.4 °C 1.1 °C 1017.8 hPa Calm   4.8 km/h 38 % 0 mm WeatherDisplay:10.37 W/m2 FEW
12:44 15.7 °C 1.1 °C 1017.8 hPa Calm   4.8 km/h 37 % 0 mm WeatherDisplay:10.37 W/m2 FEW
12:49 15.9 °C 1.3 °C 1017.5 hPa ESE 1.6 km/h 4.8 km/h 37 % 0 mm WeatherDisplay:10.37 W/m2 FEW
12:54 16.1 °C 1 °C 1017.5 hPa SE 1.6 km/h 6.4 km/h 36 % 0 mm WeatherDisplay:10.37 W/m2 FEW
12:59 16.4 °C 2.1 °C 1017.5 hPa Calm   3.2 km/h 38 % 0 mm WeatherDisplay:10.37 W/m2 FEW
13:04 16.6 °C 1.4 °C 1017.2 hPa Calm   3.2 km/h 36 % 0 mm WeatherDisplay:10.37 W/m2 FEW
13:09 16.7 °C 1.6 °C 1017.2 hPa Calm   3.2 km/h 36 % 0 mm WeatherDisplay:10.37 W/m2 FEW
13:14 16.8 °C 1.2 °C 1016.8 hPa Calm   3.2 km/h 35 % 0 mm WeatherDisplay:10.37 W/m2 FEW
13:19 16.7 °C 1.6 °C 1016.8 hPa Calm   4.8 km/h 36 % 0 mm WeatherDisplay:10.37 W/m2 FEW
13:24 16.8 °C 2.1 °C 1016.8 hPa Calm   4.8 km/h 37 % 0 mm WeatherDisplay:10.37 W/m2 FEW
13:29 16.9 °C 1.7 °C 1016.8 hPa Calm   3.2 km/h 36 % 0 mm WeatherDisplay:10.37 W/m2 FEW
13:34 16.9 °C 1.3 °C 1016.8 hPa Calm   3.2 km/h 35 % 0 mm WeatherDisplay:10.37 W/m2 FEW
13:39 16.9 °C 1.3 °C 1016.5 hPa Calm   1.6 km/h 35 % 0 mm WeatherDisplay:10.37 W/m2 FEW
13:44 17 °C 1.8 °C 1016.5 hPa Calm   6.4 km/h 36 % 0 mm WeatherDisplay:10.37 W/m2 FEW
13:49 17.2 °C 2.3 °C 1016.1 hPa Calm   3.2 km/h 37 % 0 mm WeatherDisplay:10.37 W/m2 FEW
13:54 17.5 °C 2.6 °C 1016.1 hPa Calm   3.2 km/h 37 % 0 mm WeatherDisplay:10.37 W/m2 FEW
13:59 17.9 °C 2.9 °C 1016.1 hPa Calm   1.6 km/h 37 % 0 mm WeatherDisplay:10.37 W/m2 FEW
14:04 18.1 °C 2.4 °C 1016.1 hPa SE 1.6 km/h 6.4 km/h 35 % 0 mm WeatherDisplay:10.37 W/m2 FEW
14:09 18.4 °C 2.7 °C 1015.8 hPa WNW 1.6 km/h 8 km/h 35 % 0 mm WeatherDisplay:10.37 W/m2 FEW
14:14 18.7 °C 2.9 °C 1015.8 hPa WNW 1.6 km/h 6.4 km/h 35 % 0 mm WeatherDisplay:10.37 W/m2 FEW
14:19 19.1 °C 4.1 °C 1015.8 hPa WSW 1.6 km/h 4.8 km/h 37 % 0 mm WeatherDisplay:10.37 W/m2 FEW
14:24 19.4 °C 3.6 °C 1015.8 hPa South 1.6 km/h 4.8 km/h 35 % 0 mm WeatherDisplay:10.37 W/m2 FEW
14:29 19.7 °C 3.8 °C 1015.8 hPa Calm   4.8 km/h 35 % 0 mm WeatherDisplay:10.37 W/m2 FEW
14:34 19.9 °C 3.2 °C 1015.5 hPa SW 1.6 km/h 8 km/h 33 % 0 mm WeatherDisplay:10.37 W/m2 FEW
14:39 20.2 °C 3.3 °C 1015.5 hPa Calm   4.8 km/h 33 % 0 mm WeatherDisplay:10.37 W/m2 FEW
14:44 20.3 °C 3.9 °C 1015.1 hPa WSW 1.6 km/h 6.4 km/h 34 % 0 mm WeatherDisplay:10.37 W/m2 FEW
14:49 20.6 °C 4.6 °C 1015.1 hPa Calm   4.8 km/h 35 % 0 mm WeatherDisplay:10.37 W/m2 FEW
14:54 20.7 °C 4.7 °C 1015.1 hPa SW 4.8 km/h 14.5 km/h 35 % 0 mm WeatherDisplay:10.37 W/m2 FEW
14:59 20.9 °C 4.4 °C 1014.8 hPa SW 3.2 km/h 11.3 km/h 34 % 0 mm WeatherDisplay:10.37 W/m2 FEW
15:04 21 °C 4.9 °C 1014.8 hPa WSW 3.2 km/h 9.7 km/h 35 % 0 mm WeatherDisplay:10.37 W/m2 FEW
15:09 21.2 °C 5.5 °C 1014.8 hPa WSW 4.8 km/h 12.9 km/h 36 % 0 mm WeatherDisplay:10.37 W/m2 FEW
15:14 21.3 °C 5.2 °C 1014.4 hPa WSW 3.2 km/h 16.1 km/h 35 % 0 mm WeatherDisplay:10.37 W/m2 FEW
15:19 21.3 °C 5.2 °C 1014.4 hPa West 1.6 km/h 16.1 km/h 35 % 0 mm WeatherDisplay:10.37 W/m2 FEW
15:24 21.3 °C 5.2 °C 1014.4 hPa West 4.8 km/h 9.7 km/h 35 % 0 mm WeatherDisplay:10.37 W/m2 FEW
15:29 21.4 °C 6.5 °C 1014.1 hPa Calm   8 km/h 38 % 0 mm WeatherDisplay:10.37 W/m2 FEW
15:34 21.5 °C 6.6 °C 1014.1 hPa NW 3.2 km/h 9.7 km/h 38 % 0 mm WeatherDisplay:10.37 W/m2 FEW
15:39 21.6 °C 6.7 °C 1013.8 hPa Calm   4.8 km/h 38 % 0 mm WeatherDisplay:10.37 W/m2 FEW
15:44 21.7 °C 6.3 °C 1013.8 hPa WSW 1.6 km/h 9.7 km/h 37 % 0 mm WeatherDisplay:10.37 W/m2 FEW
15:49 21.7 °C 6.4 °C 1013.4 hPa SSW 1.6 km/h 12.9 km/h 37 % 0 mm WeatherDisplay:10.37 W/m2 FEW
15:54 21.7 °C 6.7 °C 1013.4 hPa Calm   3.2 km/h 38 % 0 mm WeatherDisplay:10.37 W/m2 FEW
15:59 21.7 °C 7.2 °C 1013.4 hPa SSW 3.2 km/h 8 km/h 39 % 0 mm WeatherDisplay:10.37 W/m2 FEW
16:04 21.7 °C 7.5 °C 1013.1 hPa Calm   14.5 km/h 40 % 0 mm WeatherDisplay:10.37 W/m2 FEW
16:14 21.8 °C 7.2 °C 1013.1 hPa Calm   11.3 km/h 39 % 0 mm WeatherDisplay:10.37 W/m2 FEW
16:19 21.8 °C 7.6 °C 1013.1 hPa Calm   11.3 km/h 40 % 0 mm WeatherDisplay:10.37 W/m2 FEW
16:24 21.8 °C 7.6 °C 1013.1 hPa Calm   4.8 km/h 40 % 0 mm WeatherDisplay:10.37 W/m2 FEW
16:29 21.9 °C 8.1 °C 1013.1 hPa Calm   6.4 km/h 41 % 0 mm WeatherDisplay:10.37 W/m2 FEW
16:39 22.1 °C 7.8 °C 1012.8 hPa WSW 3.2 km/h 9.7 km/h 40 % 0 mm WeatherDisplay:10.37 W/m2 FEW
16:44 22.2 °C 8.3 °C 1012.8 hPa West 1.6 km/h 6.4 km/h 41 % 0 mm WeatherDisplay:10.37 W/m2 FEW
16:49 22.2 °C 7.9 °C 1012.8 hPa Calm   9.7 km/h 40 % 0 mm WeatherDisplay:10.37 W/m2 FEW
16:54 22.2 °C 8.7 °C 1012.8 hPa Calm   3.2 km/h 42 % 0 mm WeatherDisplay:10.37 W/m2 FEW
16:59 22.3 °C 8.7 °C 1012.4 hPa South 1.6 km/h 8 km/h 42 % 0 mm WeatherDisplay:10.37 W/m2 FEW
17:04 22.3 °C 8.8 °C 1012.4 hPa WSW 3.2 km/h 9.7 km/h 42 % 0 mm WeatherDisplay:10.37 W/m2 FEW
17:09 22.4 °C 9.2 °C 1012.4 hPa West 1.6 km/h 9.7 km/h 43 % 0 mm WeatherDisplay:10.37 W/m2 FEW
17:14 22.6 °C 8.7 °C 1012.4 hPa Calm   8 km/h 41 % 0 mm WeatherDisplay:10.37 W/m2 FEW
17:19 22.7 °C 9.1 °C 1012.4 hPa SW 1.6 km/h 14.5 km/h 42 % 0 mm WeatherDisplay:10.37 W/m2 FEW
17:24 22.7 °C 8.8 °C 1012.1 hPa Calm   8 km/h 41 % 0 mm WeatherDisplay:10.37 W/m2 FEW
17:29 22.8 °C 9.2 °C 1012.1 hPa WSW 1.6 km/h 6.4 km/h 42 % 0 mm WeatherDisplay:10.37 W/m2 FEW
17:34 22.9 °C 9.3 °C 1012.1 hPa Calm   6.4 km/h 42 % 0 mm WeatherDisplay:10.37 W/m2 FEW
17:39 23 °C 9.4 °C 1012.1 hPa Calm   4.8 km/h 42 % 0 mm WeatherDisplay:10.37 W/m2 FEW
17:44 23.1 °C 9.4 °C 1012.1 hPa Calm   1.6 km/h 42 % 0 mm WeatherDisplay:10.37 W/m2 FEW
17:49 23.1 °C 9.5 °C 1012.1 hPa WSW 1.6 km/h 8 km/h 42 % 0 mm WeatherDisplay:10.37 W/m2 FEW
17:54 23.2 °C 9.9 °C 1011.7 hPa Calm   1.6 km/h 43 % 0 mm WeatherDisplay:10.37 W/m2 FEW
17:59 23.2 °C 9.9 °C 1011.7 hPa West 1.6 km/h 14.5 km/h 43 % 0 mm WeatherDisplay:10.37 W/m2 FEW
18:04 23.2 °C 9.6 °C 1011.7 hPa Calm   8 km/h 42 % 0 mm WeatherDisplay:10.37 W/m2 FEW
18:09 23.2 °C 9.9 °C 1011.7 hPa West 1.6 km/h 8 km/h 43 % 0 mm WeatherDisplay:10.37 W/m2 FEW
18:14 23.2 °C 9.6 °C 1011.7 hPa SW 1.6 km/h 11.3 km/h 42 % 0 mm WeatherDisplay:10.37 W/m2 FEW
18:19 23.2 °C 9.2 °C 1011.7 hPa SSW 1.6 km/h 9.7 km/h 41 % 0 mm WeatherDisplay:10.37 W/m2 FEW
18:24 23 °C 9.4 °C 1011.7 hPa WSW 1.6 km/h 14.5 km/h 42 % 0 mm WeatherDisplay:10.37 W/m2 FEW
18:29 22.9 °C 9.3 °C 1011.4 hPa Calm   8 km/h 42 % 0 mm WeatherDisplay:10.37 W/m2 FEW
18:34 22.7 °C 9.2 °C 1011.4 hPa WSW 3.2 km/h 8 km/h 42 % 0 mm WeatherDisplay:10.37 W/m2 FEW
18:39 22.6 °C 9 °C 1011.4 hPa West 1.6 km/h 9.7 km/h 42 % 0 mm WeatherDisplay:10.37 W/m2 FEW
18:44 22.4 °C 8.9 °C 1011.4 hPa Calm   9.7 km/h 42 % 0 mm WeatherDisplay:10.37 W/m2 FEW
18:49 22.3 °C 8.8 °C 1011.4 hPa WSW 3.2 km/h 12.9 km/h 42 % 0 mm WeatherDisplay:10.37 W/m2 FEW
18:54 22.2 °C 9.1 °C 1011.4 hPa Calm   9.7 km/h 43 % 0 mm WeatherDisplay:10.37 W/m2 FEW
18:59 22.2 °C 8.7 °C 1011.4 hPa West 3.2 km/h 11.3 km/h 42 % 0 mm WeatherDisplay:10.37 W/m2 FEW
19:04 22.2 °C 9 °C 1011.4 hPa Calm   6.4 km/h 43 % 0 mm WeatherDisplay:10.37 W/m2 FEW
19:09 22.2 °C 8.3 °C 1011.1 hPa Calm   11.3 km/h 41 % 0 mm WeatherDisplay:10.37 W/m2 FEW
19:14 22.1 °C 8.2 °C 1011.1 hPa West 1.6 km/h 6.4 km/h 41 % 0 mm WeatherDisplay:10.37 W/m2 FEW
19:19 22.1 °C 7.5 °C 1011.1 hPa West 3.2 km/h 11.3 km/h 39 % 0 mm WeatherDisplay:10.37 W/m2 FEW
19:24 22 °C 7 °C 1011.1 hPa West 4.8 km/h 16.1 km/h 38 % 0 mm WeatherDisplay:10.37 W/m2 FEW
19:29 21.9 °C 6.9 °C 1011.1 hPa Calm   16.1 km/h 38 % 0 mm WeatherDisplay:10.37 W/m2 FEW
19:34 21.9 °C 6.6 °C 1011.1 hPa West 4.8 km/h 12.9 km/h 37 % 0 mm WeatherDisplay:10.37 W/m2 FEW
19:39 21.8 °C 6.8 °C 1011.1 hPa West 1.6 km/h 9.7 km/h 38 % 0 mm WeatherDisplay:10.37 W/m2 FEW
19:44 21.7 °C 6.3 °C 1010.7 hPa West 1.6 km/h 8 km/h 37 % 0 mm WeatherDisplay:10.37 W/m2 FEW
19:49 21.6 °C 6.7 °C 1011.1 hPa WSW 3.2 km/h 14.5 km/h 38 % 0 mm WeatherDisplay:10.37 W/m2 FEW
19:54 21.5 °C 6.2 °C 1011.1 hPa WSW 3.2 km/h 8 km/h 37 % 0 mm WeatherDisplay:10.37 W/m2 FEW
19:59 21.3 °C 6.4 °C 1011.1 hPa West 1.6 km/h 9.7 km/h 38 % 0 mm WeatherDisplay:10.37 W/m2 FEW
20:04 21.2 °C 6.7 °C 1011.1 hPa West 1.6 km/h 8 km/h 39 % 0 mm WeatherDisplay:10.37 W/m2 FEW
20:09 21.1 °C 6.6 °C 1011.1 hPa Calm   4.8 km/h 39 % 0 mm WeatherDisplay:10.37 W/m2 FEW
20:14 20.9 °C 7.2 °C 1011.1 hPa Calm   3.2 km/h 41 % 0 mm WeatherDisplay:10.37 W/m2 FEW
20:19 20.7 °C 7 °C 1011.1 hPa Calm   4.8 km/h 41 % 0 mm WeatherDisplay:10.37 W/m2 FEW
20:24 20.5 °C 7.2 °C 1011.1 hPa Calm   4.8 km/h 42 % 0 mm WeatherDisplay:10.37 W/m2 FEW
20:29 20.3 °C 7 °C 1011.1 hPa Calm   12.9 km/h 42 % 0 mm WeatherDisplay:10.37 W/m2 FEW
20:34 20.1 °C 6.8 °C 1011.1 hPa Calm   6.4 km/h 42 % 0 mm WeatherDisplay:10.37 W/m2 FEW
20:39 19.9 °C 6.9 °C 1011.1 hPa West 1.6 km/h 8 km/h 43 % 0 mm WeatherDisplay:10.37 W/m2 FEW
20:44 19.7 °C 6.8 °C 1011.1 hPa West 1.6 km/h 11.3 km/h 43 % 0 mm WeatherDisplay:10.37 W/m2 FEW
20:54 19.4 °C 6.8 °C 1011.1 hPa West 1.6 km/h 6.4 km/h 44 % 0 mm WeatherDisplay:10.37 W/m2 FEW
20:59 19.2 °C 6.7 °C 1011.1 hPa Calm   6.4 km/h 44 % 0 mm WeatherDisplay:10.37 W/m2 FEW
21:04 19.1 °C 6.6 °C 1011.1 hPa Calm   8 km/h 44 % 0 mm WeatherDisplay:10.37 W/m2 FEW
21:09 19 °C 6.8 °C 1011.1 hPa Calm   4.8 km/h 45 % 0 mm WeatherDisplay:10.37 W/m2 FEW
21:14 18.9 °C 6.7 °C 1011.1 hPa West 1.6 km/h 6.4 km/h 45 % 0 mm WeatherDisplay:10.37 W/m2 FEW
21:19 18.8 °C 6.6 °C 1011.1 hPa Calm   4.8 km/h 45 % 0 mm WeatherDisplay:10.37 W/m2 FEW
21:24 18.7 °C 6.8 °C 1011.1 hPa Calm   4.8 km/h 46 % 0 mm WeatherDisplay:10.37 W/m2 FEW
21:29 18.5 °C 6.7 °C 1010.7 hPa Calm   3.2 km/h 46 % 0 mm WeatherDisplay:10.37 W/m2 FEW
21:34 18.3 °C 6.8 °C 1010.7 hPa Calm   6.4 km/h 47 % 0 mm WeatherDisplay:10.37 W/m2 FEW
21:39 18.2 °C 6.7 °C 1010.7 hPa Calm   8 km/h 47 % 0 mm WeatherDisplay:10.37 W/m2 FEW
21:44 18 °C 6.8 °C 1010.7 hPa Calm   6.4 km/h 48 % 0 mm WeatherDisplay:10.37 W/m2 FEW
21:49 17.8 °C 6.7 °C 1010.7 hPa Calm   6.4 km/h 48 % 0 mm WeatherDisplay:10.37 W/m2 FEW
21:54 17.7 °C 6.9 °C 1010.7 hPa Calm   4.8 km/h 49 % 0 mm WeatherDisplay:10.37 W/m2 FEW
21:59 17.6 °C 7.1 °C 1010.7 hPa WSW 3.2 km/h 9.7 km/h 50 % 0 mm WeatherDisplay:10.37 W/m2 FEW
22:04 17.5 °C 6.9 °C 1010.7 hPa WSW 1.6 km/h 8 km/h 50 % 0 mm WeatherDisplay:10.37 W/m2 FEW
22:09 17.4 °C 7.2 °C 1010.7 hPa WSW 1.6 km/h 9.7 km/h 51 % 0 mm WeatherDisplay:10.37 W/m2 FEW
22:14 17.3 °C 7.1 °C 1010.7 hPa Calm   6.4 km/h 51 % 0 mm WeatherDisplay:10.37 W/m2 FEW
22:19 17.2 °C 7.3 °C 1010.7 hPa West 1.6 km/h 8 km/h 52 % 0 mm WeatherDisplay:10.37 W/m2 FEW
22:24 17.2 °C 7.5 °C 1010.7 hPa West 1.6 km/h 6.4 km/h 53 % 0 mm WeatherDisplay:10.37 W/m2 FEW
22:29 17.1 °C 7.2 °C 1010.7 hPa West 1.6 km/h 6.4 km/h 52 % 0 mm WeatherDisplay:10.37 W/m2 FEW
22:34 17.1 °C 7.4 °C 1010.7 hPa NW 1.6 km/h 14.5 km/h 53 % 0 mm WeatherDisplay:10.37 W/m2 FEW
22:39 17.1 °C 7.4 °C 1010.7 hPa WNW 3.2 km/h 12.9 km/h 53 % 0 mm WeatherDisplay:10.37 W/m2 FEW
22:44 17.1 °C 7.4 °C 1010.7 hPa West 1.6 km/h 12.9 km/h 53 % 0 mm WeatherDisplay:10.37 W/m2 FEW
22:49 17.2 °C 7.5 °C 1010.4 hPa WSW 1.6 km/h 16.1 km/h 53 % 0 mm WeatherDisplay:10.37 W/m2 FEW
22:54 17.2 °C 7.5 °C 1010.7 hPa SW 1.6 km/h 11.3 km/h 53 % 0 mm WeatherDisplay:10.37 W/m2 FEW
22:59 17.2 °C 7.5 °C 1010.4 hPa West 1.6 km/h 12.9 km/h 53 % 0 mm WeatherDisplay:10.37 W/m2 FEW
23:04 17.2 °C 7.5 °C 1010.4 hPa WNW 3.2 km/h 11.3 km/h 53 % 0 mm WeatherDisplay:10.37 W/m2 FEW
23:09 17.2 °C 7.6 °C 1010.4 hPa WNW 3.2 km/h 12.9 km/h 53 % 0 mm WeatherDisplay:10.37 W/m2 FEW
23:14 17.2 °C 7.6 °C 1010.4 hPa WNW 1.6 km/h 9.7 km/h 53 % 0 mm WeatherDisplay:10.37 W/m2 FEW
23:19 17.2 °C 7.6 °C 1010.4 hPa Calm   8 km/h 53 % 0 mm WeatherDisplay:10.37 W/m2 FEW
23:24 17.2 °C 7.6 °C 1010.4 hPa WNW 4.8 km/h 12.9 km/h 53 % 0 mm WeatherDisplay:10.37 W/m2 FEW
23:29 17.2 °C 7.5 °C 1010.4 hPa West 1.6 km/h 9.7 km/h 53 % 0 mm WeatherDisplay:10.37 W/m2 FEW
23:34 17.2 °C 7.5 °C 1010.4 hPa West 4.8 km/h 19.3 km/h 53 % 0 mm WeatherDisplay:10.37 W/m2 FEW
23:39 17.2 °C 7.5 °C 1010.4 hPa West 1.6 km/h 14.5 km/h 53 % 0 mm WeatherDisplay:10.37 W/m2 FEW
23:44 17.1 °C 7.4 °C 1010.4 hPa WNW 3.2 km/h 14.5 km/h 53 % 0 mm WeatherDisplay:10.37 W/m2 FEW
23:49 17.1 °C 7.4 °C 1010.4 hPa WNW 3.2 km/h 9.7 km/h 53 % 0 mm WeatherDisplay:10.37 W/m2 FEW
23:54 17.1 °C 7.4 °C 1010.4 hPa West 1.6 km/h 14.5 km/h 53 % 0 mm WeatherDisplay:10.37 W/m2 FEW
23:59 17.1 °C 7.7 °C 1010.4 hPa WNW 3.2 km/h 12.9 km/h 54 % 0 mm WeatherDisplay:10.37 W/m2 FEW
Juneau County Weather
Compliments of Weather Underground - 2.75 mb